Sandpoint, ID

9:15 AM PDT on May 22, 2017 (GMT -0700)
Sandpoint

Weather History for KSZT - January, 2014

Change the Weather History Date:

Monday, January 13, 2014

  Actual Average Record
Temperature  
Mean Temperature 40 °F -  
Max Temperature 46 °F 32 °F 35 °F (2016)
Min Temperature 33 °F 22 °F 8 °F (2017)
Degree Days  
Heating Degree Days 26    
Moisture  
Dew Point 33 °F    
Average Humidity 71    
Maximum Humidity 100    
Minimum Humidity 57    
Precipitation  
Precipitation 0.00 in - - ()
Sea Level Pressure  
Sea Level Pressure 30.17 in    
Wind  
Wind Speed 12 mph (SW)    
Max Wind Speed 21 mph    
Max Gust Speed 37 mph    
Visibility 10 miles    
Events      
Averages and records for this station are not official NWS values.
T = Trace of Precipitation, MM = Missing Value Source: NWS Daily Summary

Daily Weather History Graph

Daily Weather History Graph

Search for Another Location

Airport or City:

Trip Planner

Search our weather history database for the weather conditions in past years. The results will help you decide how hot, cold, wet, or windy it might be!

Date:

Astronomy

Jan. 13, 2014 Rise Set
Actual Time 7:33 AM PST 4:17 PM PST
Civil Twilight 6:58 AM PST 4:52 PM PST
Nautical Twilight 6:19 AM PST 5:31 PM PST
Astronomical Twilight 5:41 AM PST 6:09 PM PST
Moon 2:37 PM PST (1/13) 5:24 AM PST (1/13)
Length of Visible Light 9h 54m
Length of Day
8h 43m
Waxing Gibbous, 95% of the Moon is Illuminated
Jan 13
Waxing Gibbous
Jan 15
Full
Jan 23
Last Quarter
Jan 30
New
Feb 6
First Quarter

Hourly Weather History & Observations

Time (PST) Temp. Windchill Dew Point Humidity Pressure Visibility Wind Dir Wind Speed Gust Speed Precip Events Conditions
12:15 AM 41.0 °F 33.9 °F 35.6 °F 81% 30.00 in 10.0 mi WSW 12.7 mph 21.9 mph N/A   Scattered Clouds
12:35 AM 42.8 °F 35.1 °F 35.6 °F 76% 30.00 in 10.0 mi WSW 16.1 mph 28.8 mph N/A   Scattered Clouds
12:55 AM 41.0 °F 34.7 °F 33.8 °F 76% 30.01 in 10.0 mi SW 10.4 mph 23.0 mph N/A   Scattered Clouds
1:15 AM 41.0 °F 35.2 °F 35.6 °F 81% 30.02 in 10.0 mi SSW 9.2 mph - N/A   Mostly Cloudy
1:35 AM 41.0 °F 34.7 °F 35.6 °F 81% 30.03 in 10.0 mi SSW 10.4 mph - N/A   Overcast
1:55 AM 41.0 °F 34.3 °F 35.6 °F 81% 30.03 in 10.0 mi SW 11.5 mph - N/A   Overcast
2:15 AM 41.0 °F 34.3 °F 35.6 °F 81% 30.03 in 10.0 mi SW 11.5 mph 18.4 mph N/A   Overcast
2:35 AM 42.8 °F 37.0 °F 33.8 °F 70% 30.04 in 10.0 mi SW 10.4 mph 17.3 mph N/A   Overcast
3:15 AM 41.0 °F 34.3 °F 33.8 °F 76% 30.04 in 10.0 mi SW 11.5 mph 19.6 mph N/A   Overcast
3:35 AM 42.8 °F 36.6 °F 33.8 °F 70% 30.04 in 10.0 mi SW 11.5 mph 18.4 mph N/A   Overcast
3:55 AM 42.8 °F 36.6 °F 33.8 °F 70% 30.04 in 10.0 mi SW 11.5 mph 16.1 mph N/A   Overcast
4:15 AM 42.8 °F 36.2 °F 33.8 °F 70% 30.04 in 10.0 mi SW 12.7 mph 18.4 mph N/A   Overcast
4:35 AM 42.8 °F 37.5 °F 33.8 °F 70% 30.03 in 10.0 mi SW 9.2 mph 17.3 mph N/A   Mostly Cloudy
4:55 AM 42.8 °F 37.0 °F 33.8 °F 70% 30.03 in 10.0 mi SW 10.4 mph 19.6 mph N/A   Scattered Clouds
5:15 AM 42.8 °F 37.0 °F 33.8 °F 70% 30.03 in 10.0 mi WSW 10.4 mph 21.9 mph N/A   Scattered Clouds
5:35 AM 42.8 °F 35.4 °F 33.8 °F 70% 30.03 in 10.0 mi WSW 15.0 mph 20.7 mph N/A   Scattered Clouds
5:55 AM 42.8 °F 36.2 °F 33.8 °F 70% 30.03 in 10.0 mi SW 12.7 mph 19.6 mph N/A   Mostly Cloudy
6:15 AM 42.8 °F 36.2 °F 33.8 °F 70% 30.04 in 10.0 mi WSW 12.7 mph 19.6 mph N/A   Mostly Cloudy
6:35 AM 42.8 °F 36.2 °F 33.8 °F 70% 30.04 in 10.0 mi WSW 12.7 mph 23.0 mph N/A   Scattered Clouds
6:55 AM 41.0 °F 33.5 °F 33.8 °F 76% 30.04 in 10.0 mi WSW 13.8 mph 23.0 mph N/A   Scattered Clouds
7:15 AM 41.0 °F 34.3 °F 33.8 °F 76% 30.05 in 10.0 mi WSW 11.5 mph 18.4 mph N/A   Mostly Cloudy
7:35 AM 41.0 °F 33.9 °F 33.8 °F 76% 30.06 in 10.0 mi WSW 12.7 mph 20.7 mph N/A   Mostly Cloudy
7:55 AM 41.0 °F 34.3 °F 33.8 °F 76% 30.07 in 10.0 mi WSW 11.5 mph 18.4 mph N/A   Scattered Clouds
8:15 AM 42.8 °F 35.4 °F 32.0 °F 66% 30.07 in 10.0 mi WSW 15.0 mph 24.2 mph N/A   Scattered Clouds
8:35 AM 42.8 °F 37.0 °F 32.0 °F 66% 30.09 in 10.0 mi SW 10.4 mph 29.9 mph N/A   Scattered Clouds
8:55 AM 42.8 °F 35.8 °F 33.8 °F 70% 30.11 in 10.0 mi SW 13.8 mph 21.9 mph N/A   Mostly Cloudy
9:15 AM 42.8 °F 35.1 °F 33.8 °F 70% 30.11 in 10.0 mi WSW 16.1 mph 24.2 mph N/A   Mostly Cloudy
9:35 AM 42.8 °F 34.5 °F 32.0 °F 66% 30.11 in 10.0 mi WSW 18.4 mph 31.1 mph N/A   Scattered Clouds
9:55 AM 42.8 °F 34.3 °F 32.0 °F 66% 30.12 in 10.0 mi West 19.6 mph 28.8 mph N/A   Clear
10:15 AM 44.6 °F 36.4 °F 32.0 °F 61% 30.13 in 10.0 mi West 20.7 mph 28.8 mph N/A   Clear
10:35 AM 42.8 °F 34.5 °F 32.0 °F 66% 30.14 in 10.0 mi WSW 18.4 mph 36.8 mph N/A   Clear
10:55 AM 42.8 °F 35.4 °F 32.0 °F 66% 30.14 in 10.0 mi WSW 15.0 mph 25.3 mph N/A   Scattered Clouds
11:15 AM 44.6 °F 38.1 °F 32.0 °F 61% 30.14 in 10.0 mi WSW 13.8 mph 28.8 mph N/A   Scattered Clouds
11:35 AM 44.6 °F 37.8 °F 32.0 °F 61% 30.13 in 10.0 mi WSW 15.0 mph 24.2 mph N/A   Scattered Clouds
11:55 AM 44.6 °F 36.9 °F 32.0 °F 61% 30.13 in 10.0 mi WSW 18.4 mph 24.2 mph N/A   Clear
12:15 PM 46.4 °F 39.2 °F 32.0 °F 57% 30.13 in 10.0 mi West 18.4 mph 28.8 mph N/A   Clear
12:35 PM 46.4 °F 40.1 °F 32.0 °F 57% 30.13 in 10.0 mi WSW 15.0 mph 25.3 mph N/A   Clear
12:55 PM 46.4 °F 39.8 °F 32.0 °F 57% 30.13 in 10.0 mi WSW 16.1 mph 27.6 mph N/A   Scattered Clouds
1:15 PM 46.4 °F 38.7 °F 32.0 °F 57% 30.14 in 10.0 mi WSW 20.7 mph 25.3 mph N/A   Scattered Clouds
1:35 PM 46.4 °F 41.1 °F 32.0 °F 57% 30.15 in 10.0 mi SW 11.5 mph 23.0 mph N/A   Scattered Clouds
1:55 PM 46.4 °F 40.4 °F 32.0 °F 57% 30.16 in 10.0 mi SW 13.8 mph 25.3 mph N/A   Scattered Clouds
2:15 PM 46.4 °F 40.4 °F 32.0 °F 57% 30.17 in 10.0 mi SW 13.8 mph 20.7 mph N/A   Scattered Clouds
2:35 PM 46.4 °F 41.5 °F 32.0 °F 57% 30.17 in 10.0 mi SW 10.4 mph 23.0 mph N/A   Scattered Clouds
2:55 PM 46.4 °F 41.1 °F 32.0 °F 57% 30.18 in 10.0 mi SW 11.5 mph 19.6 mph N/A   Scattered Clouds
3:15 PM 46.4 °F 41.1 °F 33.8 °F 62% 30.20 in 10.0 mi SW 11.5 mph 19.6 mph N/A   Mostly Cloudy
3:35 PM 46.4 °F 41.9 °F 33.8 °F 62% 30.21 in 10.0 mi SW 9.2 mph - N/A   Scattered Clouds
4:15 PM 44.6 °F 40.7 °F 33.8 °F 66% 30.23 in 10.0 mi SW 6.9 mph - N/A   Clear
4:35 PM 44.6 °F 40.2 °F 33.8 °F 66% 30.24 in 10.0 mi SSW 8.1 mph - N/A   Clear
4:55 PM 44.6 °F 40.2 °F 33.8 °F 66% 30.25 in 10.0 mi SSW 8.1 mph - N/A   Clear
5:15 PM 42.8 °F 37.0 °F 33.8 °F 70% 30.25 in 10.0 mi South 10.4 mph - N/A   Clear
5:35 PM 42.8 °F 36.6 °F 33.8 °F 70% 30.27 in 10.0 mi South 11.5 mph - N/A   Clear
5:55 PM 42.8 °F 37.0 °F 33.8 °F 70% 30.28 in 10.0 mi South 10.4 mph - N/A   Clear
6:15 PM 42.8 °F 37.5 °F 33.8 °F 70% 30.28 in 10.0 mi SW 9.2 mph - N/A   Mostly Cloudy
6:35 PM 42.8 °F 38.0 °F 33.8 °F 70% 30.30 in 10.0 mi South 8.1 mph - N/A   Mostly Cloudy
6:55 PM 41.0 °F 37.1 °F 32.0 °F 70% 30.31 in 10.0 mi SSW 5.8 mph - N/A   Scattered Clouds
7:15 PM 41.0 °F 36.4 °F 32.0 °F 70% 30.31 in 10.0 mi SSW 6.9 mph - N/A   Scattered Clouds
7:35 PM 42.8 °F 38.6 °F 33.8 °F 70% 30.33 in 10.0 mi SSW 6.9 mph - N/A   Mostly Cloudy
7:55 PM 37.4 °F - 32.0 °F 81% 30.35 in 7.0 mi Calm Calm - N/A   Mostly Cloudy
8:15 PM 35.6 °F 31.7 °F 32.0 °F 87% 30.35 in 10.0 mi WSW 4.6 mph - N/A   Mostly Cloudy
8:35 PM 33.8 °F 30.8 °F 32.0 °F 93% 30.37 in 10.0 mi SW 3.5 mph - N/A   Mostly Cloudy
8:55 PM 33.8 °F 30.8 °F 33.8 °F 100% 30.36 in 10.0 mi WSW 3.5 mph - N/A   Mostly Cloudy
9:15 PM 35.6 °F 31.7 °F 33.8 °F 93% 30.37 in 10.0 mi WSW 4.6 mph - N/A   Overcast
9:35 PM 39.2 °F 35.0 °F 32.0 °F 75% 30.38 in 10.0 mi SW 5.8 mph - N/A   Overcast
9:55 PM 41.0 °F 38.0 °F 33.8 °F 76% 30.40 in 10.0 mi WSW 4.6 mph - N/A   Overcast
10:15 PM 41.0 °F 36.4 °F 33.8 °F 76% 30.41 in 10.0 mi SW 6.9 mph - N/A   Mostly Cloudy
10:35 PM 39.2 °F 34.2 °F 32.0 °F 75% 30.43 in 10.0 mi South 6.9 mph - N/A   Mostly Cloudy
10:55 PM 37.4 °F 32.8 °F 33.8 °F 87% 30.44 in 10.0 mi SW 5.8 mph - N/A   Overcast
11:15 PM 39.2 °F 35.9 °F 33.8 °F 81% 30.44 in 10.0 mi West 4.6 mph - N/A   Overcast
11:35 PM 37.4 °F 33.8 °F 33.8 °F 87% 30.45 in 10.0 mi WSW 4.6 mph - N/A   Overcast
11:55 PM 39.2 °F 34.2 °F 33.8 °F 81% 30.46 in 10.0 mi South 6.9 mph - N/A   Overcast